Location: Coffee Ditch
(40.9640°N, 122.7500°W)
Time: 14:49:40
(UTC+00:00)

ALOS - Pass Details

Date: 08 September 2024
Orbit: 669 x 673 km, 98.0° (Epoch: 08 October)

Event Time Altitude Azimuth Distance (km) Brightness Sun altitude
Rises 12:01:01 0° 357° (N) 3,036 5.9 -19.6°
Reaches altitude 10° 12:03:44 10° 341° (NNW) 2,115 4.9 -19.1°
Enters shadow 12:06:48 20° 300° (WNW) 1,540 3.8 -18.6°
